Location: Goodmill
(36.7808°N, 119.0234°W)
Time: 21:36:16
(UTC+00:00)

Daily predictions for brighter satellites

Satellite Brightness Start Highest point End
(mag) Time Altitude Azimuth Time Altitude Azimuth Time Altitude Azimuth
ADEOS II 4.2 12:01:30 10° NW 12:02:53 11° WNW 12:04:16 10° WNW
STARLINK-1189 4.1 12:01:00 10° WNW 12:03:29 22° SW 12:05:57 10° S
STARLINK-1188 4.1 12:01:53 10° WNW 12:04:21 21° SW 12:06:48 10° S
STARLINK-1187 4.4 12:03:12 10° W 12:05:23 18° SW 12:07:35 10° S
Uosat 12 SS-18 rocket 4.1 12:02:01 10° NNW 12:06:22 88° WSW 12:11:09 10° SSE
STARLINK-1191 4.2 12:04:26 10° W 12:06:47 20° SW 12:09:08 10° S
STARLINK-1211 3.6 12:03:23 10° NW 12:07:31 71° SW 12:11:37 10° SE
STARLINK-1221 4.2 12:05:20 10° W 12:07:40 19° SW 12:10:00 10° S
STARLINK-1297 4.5 12:04:44 10° SSW 12:07:47 32° SE 12:10:49 10° ENE
STARLINK-1222 4.3 12:06:15 10° W 12:08:33 19° SW 12:10:50 10° S
Landsat 5 4.5 12:04:56 10° SSW 12:08:53 31° W 12:12:54 10° NW
STARLINK-22 4.1 12:06:07 10° SSW 12:09:07 38° SE 12:12:07 10° ENE
STARLINK-26 3.2 12:05:44 10° SW 12:09:09 77° SE 12:12:36 10° NE
STARLINK-1214 4.3 12:07:13 10° W 12:09:28 19° SW 12:11:42 10° S
ERS-2 4.1 12:08:28 10° WSW 12:09:48 12° W 12:11:08 10° WNW
Cosmos 1825 2.8 12:07:00 10° S 12:10:40 58° E 12:14:22 10° NNE
STARLINK-1283 3.9 12:07:11 10° SSW 12:10:46 52° SE 12:14:21 10° ENE
Cosmos 2150 Rocket 4.0 12:05:47 10° NNW 12:10:55 68° WSW 12:16:00 10° S
STARLINK-1245 3.6 12:08:23 10° NW 12:12:29 63° SW 12:16:34 10° SE
